TimeCST,TemperatureF,Dew PointF,Humidity,Sea Level PressureIn,VisibilityMPH,Wind Direction,Wind SpeedMPH,Gust SpeedMPH,PrecipitationIn,Events,Conditions,WindDirDegrees,DateUTC
12:53 AM,23.0,19.9,88,29.56,9.0,SE,8.1,-,N/A,,Scattered Clouds,140,2013-02-18 06:53:00
1:00 AM,24.8,19.4,80,29.49,9.0,SE,5.8,-,N/A,,Mostly Cloudy,130,2013-02-18 07:00:00
1:53 AM,24.1,19.9,84,29.55,9.0,SE,3.5,-,N/A,,Overcast,130,2013-02-18 07:53:00
2:29 AM,24.8,19.4,80,29.49,8.0,Calm,Calm,-,N/A,,Overcast,0,2013-02-18 08:29:00
2:53 AM,24.1,21.0,88,29.55,8.0,ESE,3.5,-,N/A,,Overcast,120,2013-02-18 08:53:00
3:42 AM,24.8,21.2,86,29.47,8.0,Calm,Calm,-,N/A,,Overcast,0,2013-02-18 09:42:00
3:53 AM,23.0,19.9,88,29.54,8.0,South,3.5,-,N/A,,Mostly Cloudy,180,2013-02-18 09:53:00
4:24 AM,26.6,23.0,86,29.48,8.0,SW,9.2,-,N/A,,Overcast,230,2013-02-18 10:24:00
4:53 AM,27.0,24.1,89,29.55,6.0,SW,9.2,-,N/A,,Overcast,230,2013-02-18 10:53:00
5:35 AM,28.4,26.6,93,29.50,2.5,West,6.9,-,N/A,,Overcast,260,2013-02-18 11:35:00
5:53 AM,28.9,28.0,96,29.55,2.5,West,6.9,-,0.00,Snow,Light Snow,280,2013-02-18 11:53:00
6:11 AM,30.2,28.4,93,29.49,3.0,WNW,10.4,-,0.00,,Overcast,300,2013-02-18 12:11:00
6:53 AM,30.0,28.9,96,29.55,4.0,WNW,12.7,-,0.00,,Overcast,290,2013-02-18 12:53:00
7:27 AM,24.8,21.2,86,29.52,5.0,NW,21.9,28.8,N/A,,Overcast,310,2013-02-18 13:27:00
7:53 AM,23.0,19.0,85,29.60,9.0,NW,25.3,32.2,N/A,,Overcast,310,2013-02-18 13:53:00
8:09 AM,21.2,17.6,86,29.54,10.0,NW,26.5,33.4,N/A,,Overcast,310,2013-02-18 14:09:00
8:53 AM,19.0,15.1,85,29.64,10.0,NW,19.6,25.3,N/A,,Overcast,310,2013-02-18 14:53:00
9:53 AM,16.0,10.9,81,29.68,10.0,NW,20.7,26.5,N/A,,Overcast,310,2013-02-18 15:53:00
10:35 AM,14.0,8.6,79,29.64,6.0,NW,18.4,27.6,N/A,,Haze,310,2013-02-18 16:35:00
10:53 AM,14.0,8.1,77,29.71,6.0,NW,24.2,31.1,0.00,,Haze,310,2013-02-18 16:53:00
11:53 AM,12.9,6.1,74,29.74,10.0,NW,19.6,33.4,N/A,,Overcast,310,2013-02-18 17:53:00
12:53 PM,12.0,5.0,73,29.75,9.0,NW,20.7,28.8,N/A,,Overcast,310,2013-02-18 18:53:00
1:53 PM,10.9,1.9,67,29.77,10.0,NW,25.3,33.4,N/A,,Overcast,310,2013-02-18 19:53:00
2:26 PM,10.4,1.4,67,29.70,10.0,NW,25.3,32.2,N/A,,Mostly Cloudy,310,2013-02-18 20:26:00
2:53 PM,9.0,-0.0,67,29.80,10.0,NW,24.2,35.7,N/A,,Mostly Cloudy,310,2013-02-18 20:53:00
3:08 PM,8.6,-0.4,67,29.72,10.0,NNW,25.3,34.5,N/A,,Scattered Clouds,330,2013-02-18 21:08:00
3:36 PM,6.8,-2.2,67,29.74,10.0,NW,27.6,34.5,N/A,,Mostly Cloudy,320,2013-02-18 21:36:00
3:50 PM,6.8,-2.2,67,29.75,10.0,NNW,24.2,33.4,N/A,,Scattered Clouds,330,2013-02-18 21:50:00
3:53 PM,7.0,-2.9,64,29.83,10.0,NNW,21.9,33.4,N/A,,Scattered Clouds,330,2013-02-18 21:53:00
4:36 PM,3.2,-4.0,72,29.77,9.0,NNW,17.3,31.1,N/A,,Mostly Cloudy,330,2013-02-18 22:36:00
4:53 PM,3.9,-4.0,70,29.86,10.0,NNW,24.2,31.1,N/A,,Mostly Cloudy,330,2013-02-18 22:53:00
5:53 PM,1.9,-6.0,69,29.90,10.0,NW,20.7,33.4,N/A,,Mostly Cloudy,320,2013-02-18 23:53:00
6:53 PM,1.0,-6.0,72,29.93,7.0,NNW,17.3,29.9,N/A,,Overcast,330,2013-02-19 00:53:00
7:53 PM,1.0,-6.0,72,29.94,2.5,NNW,23.0,31.1,0.00,Snow,Light Snow,330,2013-02-19 01:53:00
8:53 PM,-0.0,-6.0,76,29.96,4.0,NW,21.9,27.6,0.00,,Haze,320,2013-02-19 02:53:00
9:49 PM,-0.4,-7.6,72,29.89,7.0,NW,19.6,28.8,N/A,,Mostly Cloudy,320,2013-02-19 03:49:00
9:53 PM,-0.9,-8.0,72,29.99,7.0,NW,20.7,28.8,N/A,,Mostly Cloudy,320,2013-02-19 03:53:00
10:02 PM,-2.2,-7.6,78,29.89,8.0,NW,20.7,27.6,N/A,,Scattered Clouds,320,2013-02-19 04:02:00
10:40 PM,-2.2,-9.4,71,29.90,8.0,NNW,21.9,29.9,N/A,,Mostly Cloudy,330,2013-02-19 04:40:00
10:53 PM,-2.0,-8.0,76,30.01,8.0,NNW,21.9,29.9,N/A,,Mostly Cloudy,330,2013-02-19 04:53:00
11:53 PM,-0.9,-8.0,72,30.03,8.0,NNW,21.9,31.1,N/A,,Overcast,330,2013-02-19 05:53:00